Andrews AFB, MD

1:37 PM EST on December 08, 2019 (GMT -0500)
Andrews Air Force Base-Naf

Weather History for KADW - November, 2019

Change the Weather History Date:

Friday, November 22, 2019

  Actual Average Record
Temperature  
Mean Temperature 44 °F -  
Max Temperature 53 °F 53 °F 73 °F (2007)
Min Temperature 36 °F 33 °F 19 °F (2014)
Degree Days  
Heating Degree Days 20    
Moisture  
Dew Point 38 °F    
Average Humidity 69    
Maximum Humidity 95    
Minimum Humidity 52    
Precipitation  
Precipitation 0.26 in - - ()
Sea Level Pressure  
Sea Level Pressure 29.94 in    
Wind  
Wind Speed 9 mph ()    
Max Wind Speed 14 mph    
Max Gust Speed 20 mph    
Visibility 9.6 miles    
Events Rain    
Averages and records for this station are not official NWS values.
T = Trace of Precipitation, MM = Missing Value Source: Averaged Metar Reports

Daily Weather History Graph

Daily Weather History Graph

Search for Another Location

Airport or City:

Astronomy

Nov. 22, 2019 Rise Set
Actual Time 6:57 AM EST 4:49 PM EST
Civil Twilight 6:28 AM EST 5:18 PM EST
Nautical Twilight 5:55 AM EST 5:50 PM EST
Astronomical Twilight 5:24 AM EST 6:22 PM EST
Moon 2:04 AM EST (11/22) 2:45 PM EST (11/22)
Length of Visible Light 10h 49m
Length of Day
9h 52m
Waning Crescent, 20% of the Moon is Illuminated
Nov 22
Waning Crescent
Nov 26
New
Dec 4
First Quarter
Dec 12
Full
Dec 18
Last Quarter

Hourly Weather History & Observations

Time (EST) Temp. Windchill Dew Point Humidity Pressure Visibility Wind Dir Wind Speed Gust Speed Precip Events Conditions
12:56 AM 50.9 °F - 35.8 °F 56% 29.99 in 10.0 mi SSW 13.8 mph - N/A   Overcast
1:56 AM 49.3 °F - 36.3 °F 61% 29.97 in 10.0 mi SSW 9.2 mph - N/A   Partly Cloudy
2:56 AM 48.6 °F - 36.9 °F 64% 29.96 in 10.0 mi SSW 6.9 mph - N/A   Scattered Clouds
3:56 AM 49.5 °F - 37.4 °F 63% 29.94 in 10.0 mi SSW 10.4 mph - N/A   Mostly Cloudy
4:56 AM 49.1 °F - 37.4 °F 64% 29.91 in 10.0 mi SSW 8.1 mph - N/A   Clear
6:56 AM 50.4 °F - 38.7 °F 64% 29.89 in 10.0 mi SSW 6.9 mph - N/A   Overcast
7:56 AM 50.9 °F - 39.2 °F 64% 29.88 in 10.0 mi SW 8.1 mph - N/A   Mostly Cloudy
8:56 AM 52.9 °F - 39.4 °F 60% 29.86 in 10.0 mi SSW 10.4 mph - N/A   Mostly Cloudy
9:28 AM 53.6 °F - 41.0 °F 62% 29.87 in 10.0 mi SW 10.4 mph - N/A Rain Light Rain
9:56 AM 51.1 °F - 44.1 °F 77% 29.88 in 10.0 mi WSW 12.7 mph 19.6 mph 0.02 in Rain Light Rain
10:56 AM 49.6 °F - 46.2 °F 88% 29.88 in 6.0 mi SW 10.4 mph - 0.08 in Rain Light Rain
11:56 AM 50.0 °F - 48.0 °F 93% 29.86 in 7.0 mi SW 11.5 mph - 0.13 in Rain Light Rain
12:04 PM 50.0 °F - 48.2 °F 94% 29.86 in 7.0 mi SW 11.5 mph - N/A Rain Light Rain
12:30 PM 51.8 °F - 50.0 °F 94% 29.83 in 10.0 mi SW 9.2 mph 17.3 mph N/A   Overcast
12:56 PM 51.8 °F - 50.4 °F 95% 29.82 in 10.0 mi SW 9.2 mph - 0.03 in   Overcast
2:56 PM 52.7 °F - 46.8 °F 80% 29.86 in 10.0 mi NW 6.9 mph - N/A   Partly Cloudy
3:56 PM 52.2 °F - 41.9 °F 68% 29.89 in 10.0 mi NW 11.5 mph - N/A   Clear
4:56 PM 50.2 °F - 36.3 °F 59% 29.94 in 10.0 mi NNW 11.5 mph - N/A   Clear
5:56 PM 48.4 °F - 31.6 °F 52% 29.98 in 10.0 mi NW 13.8 mph 18.4 mph N/A   Clear
6:56 PM 46.8 °F - 30.9 °F 54% 30.01 in 10.0 mi NW 9.2 mph - N/A   Clear
7:56 PM 45.9 °F 40.0 °F 29.7 °F 53% 30.04 in 10.0 mi NNW 12.7 mph - N/A   Clear
8:56 PM 43.7 °F 39.1 °F 28.6 °F 55% 30.06 in 10.0 mi NNW 8.1 mph - N/A   Clear
9:56 PM 41.4 °F 36.8 °F 28.0 °F 59% 30.09 in 10.0 mi NNW 6.9 mph - N/A   Clear
10:56 PM 36.1 °F - 27.0 °F 69% 30.10 in 10.0 mi Calm Calm - N/A   Clear
11:56 PM 37.6 °F 31.6 °F 27.0 °F 66% 30.10 in 10.0 mi NNW 8.1 mph - N/A   Clear